GFSNIL_prec_precacc24_132.txt.gz
Total_Precipitation_Accumulation
0.19 0.27 0.53 0.57 0.98 1.34 1.55 1.24 1.36 0.65 0.27 0.24 0.20 0.14 0.13 0.09 0.07 0.04 0.04 0.04 0.05 0.13
0.20 0.19 0.22 0.31 0.52 0.73 0.65 0.55 0.51 0.30 0.18 0.28 0.27 0.19 0.15 0.15 0.12 0.10 0.06 0.03 0.05 0.07
0.24 0.16 0.19 0.16 0.16 0.30 0.61 0.67 0.38 0.22 0.19 0.20 0.20 0.17 0.12 0.10 0.11 0.13 0.12 0.11 0.15 0.18
0.14 0.22 0.24 0.21 0.16 0.23 0.27 0.35 0.28 0.22 0.18 0.13 0.14 0.13 0.12 0.10 0.10 0.13 0.16 0.15 0.17 0.21
0.23 0.32 0.32 0.25 0.20 0.16 0.17 0.22 0.23 0.27 0.23 0.17 0.15 0.13 0.12 0.10 0.10 0.11 0.15 0.17 0.15 0.12
0.31 0.38 0.41 0.34 0.24 0.27 0.30 0.29 0.25 0.21 0.18 0.17 0.18 0.18 0.17 0.21 0.17 0.18 0.19 0.21 0.22 0.20
0.25 0.38 0.43 0.40 0.34 0.36 0.37 0.33 0.30 0.29 0.27 0.28 0.23 0.18 0.18 0.17 0.16 0.17 0.21 0.24 0.23 0.23
0.11 0.24 0.36 0.38 0.36 0.33 0.38 0.39 0.34 0.31 0.29 0.31 0.30 0.31 0.23 0.15 0.15 0.18 0.20 0.25 0.30 0.31
0.14 0.23 0.32 0.25 0.29 0.25 0.24 0.29 0.39 0.51 0.60 0.53 0.40 0.48 0.30 0.30 0.26 0.23 0.22 0.21 0.20 0.25
0.13 0.23 0.30 0.30 0.36 0.34 0.31 0.33 0.30 0.33 0.44 0.69 0.85 0.91 0.82 0.69 0.50 0.47 0.51 0.54 0.52 0.41
0.19 0.31 0.46 0.42 0.38 0.47 0.48 0.40 0.43 0.47 0.36 0.26 0.31 0.46 0.57 0.76 0.89 1.00 0.89 0.82 0.76 0.78
0.27 0.36 0.42 0.56 0.63 0.59 0.60 0.70 0.70 0.63 0.62 0.50 0.36 0.38 0.40 0.42 0.34 0.39 0.44 0.41 0.39 0.42
0.48 0.55 0.64 0.71 0.84 1.03 1.03 0.90 0.87 0.88 0.83 0.81 0.67 0.80 0.82 0.79 0.68 0.65 0.59 0.47 0.38 0.46
0.48 0.63 0.68 0.77 0.95 1.14 1.27 1.37 1.23 1.10 1.00 0.91 0.95 1.00 1.08 1.20 1.09 0.99 0.79 0.69 0.64 0.66

GFSNIL_prec_precacc24_135.txt.gz
Total_Precipitation_Accumulation
0.24 0.30 0.55 0.70 1.08 1.94 2.61 2.30 2.49 2.55 1.73 1.06 0.58 0.42 0.37 0.23 0.13 0.08 0.12 0.11 0.06 0.09
0.26 0.24 0.27 0.38 0.78 1.01 0.97 1.21 1.51 1.57 1.23 1.39 1.52 1.05 0.64 0.50 0.47 0.40 0.19 0.07 0.08 0.08
0.36 0.28 0.25 0.18 0.25 0.57 1.06 1.12 0.93 0.82 0.65 0.64 0.75 0.83 0.45 0.28 0.29 0.32 0.29 0.22 0.22 0.21
0.34 0.47 0.27 0.20 0.17 0.34 0.48 0.72 0.75 0.67 0.52 0.43 0.35 0.31 0.22 0.14 0.12 0.18 0.21 0.25 0.24 0.27
0.31 0.30 0.33 0.27 0.22 0.20 0.24 0.29 0.37 0.43 0.46 0.35 0.24 0.19 0.17 0.16 0.14 0.14 0.17 0.21 0.21 0.19
0.26 0.22 0.26 0.39 0.36 0.25 0.30 0.31 0.30 0.30 0.31 0.28 0.23 0.20 0.20 0.24 0.19 0.20 0.21 0.24 0.26 0.25
0.33 0.24 0.27 0.34 0.38 0.35 0.31 0.36 0.38 0.33 0.30 0.32 0.27 0.19 0.18 0.16 0.15 0.17 0.22 0.25 0.26 0.27
0.14 0.13 0.20 0.32 0.32 0.28 0.32 0.35 0.34 0.31 0.29 0.31 0.30 0.31 0.22 0.15 0.14 0.17 0.20 0.25 0.30 0.34
0.08 0.06 0.11 0.16 0.23 0.23 0.22 0.27 0.38 0.50 0.59 0.53 0.40 0.48 0.31 0.31 0.28 0.26 0.24 0.24 0.25 0.31
0.04 0.11 0.13 0.20 0.28 0.29 0.30 0.32 0.29 0.32 0.43 0.69 0.84 0.90 0.81 0.69 0.50 0.48 0.53 0.57 0.54 0.44
0.08 0.12 0.25 0.28 0.30 0.41 0.44 0.39 0.43 0.45 0.35 0.25 0.30 0.44 0.56 0.75 0.88 0.98 0.87 0.80 0.74 0.77
0.15 0.18 0.17 0.35 0.49 0.48 0.50 0.63 0.67 0.61 0.61 0.49 0.34 0.35 0.38 0.41 0.33 0.38 0.42 0.39 0.37 0.39
0.29 0.28 0.42 0.48 0.56 0.77 0.82 0.70 0.74 0.77 0.74 0.74 0.63 0.73 0.78 0.76 0.67 0.65 0.58 0.46 0.37 0.44
0.17 0.22 0.31 0.43 0.50 0.64 0.89 1.01 0.95 0.89 0.84 0.75 0.77 0.81 0.90 1.07 1.03 0.93 0.73 0.63 0.59 0.61

GFSNIL_prec_precacc24_138.txt.gz
Total_Precipitation_Accumulation
0.24 0.28 0.56 0.71 1.09 1.97 2.66 2.33 2.57 2.88 3.02 2.41 1.84 1.74 0.82 0.37 0.22 0.12 0.16 0.13 0.07 0.08
0.28 0.23 0.28 0.41 0.81 1.04 1.00 1.27 1.59 1.71 1.97 2.59 2.73 2.17 1.50 1.00 0.78 0.66 0.47 0.30 0.19 0.15
0.40 0.30 0.30 0.25 0.35 0.61 1.09 1.16 1.00 1.07 1.13 1.09 1.13 1.28 1.48 1.50 1.28 1.29 1.05 0.75 0.69 0.44
0.50 0.65 0.44 0.35 0.31 0.42 0.54 0.76 0.83 0.80 0.80 0.78 0.71 0.69 0.73 0.70 0.88 1.25 1.49 1.27 0.94 0.53
0.90 1.07 0.60 0.39 0.29 0.22 0.30 0.43 0.45 0.48 0.53 0.57 0.56 0.58 0.55 0.63 0.59 0.53 0.60 0.70 0.55 0.28
0.66 0.57 0.68 0.38 0.30 0.20 0.25 0.40 0.37 0.29 0.31 0.38 0.40 0.41 0.47 0.53 0.46 0.53 0.42 0.39 0.33 0.27
0.94 0.29 0.21 0.30 0.27 0.26 0.23 0.32 0.38 0.33 0.31 0.34 0.33 0.34 0.38 0.34 0.25 0.24 0.28 0.29 0.27 0.26
0.31 0.19 0.12 0.17 0.18 0.19 0.25 0.29 0.29 0.30 0.30 0.32 0.32 0.32 0.23 0.17 0.16 0.17 0.19 0.25 0.30 0.34
0.09 0.06 0.03 0.03 0.05 0.07 0.13 0.22 0.35 0.47 0.58 0.53 0.40 0.46 0.29 0.29 0.26 0.24 0.23 0.23 0.25 0.30
0.02 0.03 0.03 0.04 0.12 0.13 0.18 0.27 0.27 0.30 0.42 0.69 0.84 0.89 0.80 0.67 0.49 0.47 0.53 0.56 0.54 0.43
0.02 0.02 0.02 0.04 0.07 0.20 0.28 0.33 0.40 0.45 0.35 0.24 0.29 0.43 0.55 0.74 0.88 0.97 0.87 0.79 0.74 0.76
0.05 0.03 0.04 0.09 0.19 0.18 0.22 0.41 0.56 0.58 0.59 0.48 0.32 0.31 0.33 0.39 0.33 0.37 0.40 0.37 0.36 0.38
0.07 0.11 0.16 0.24 0.21 0.35 0.52 0.47 0.52 0.64 0.64 0.65 0.59 0.66 0.67 0.67 0.65 0.64 0.56 0.43 0.34 0.39
0.04 0.08 0.12 0.17 0.26 0.26 0.34 0.57 0.59 0.58 0.54 0.49 0.50 0.55 0.65 0.82 0.84 0.81 0.69 0.61 0.57 0.58

GFSNIL_prec_precacc24_144.txt.gz
Total_Precipitation_Accumulation
0.22 0.27 0.55 0.72 1.07 1.95 2.58 2.28 2.56 2.86 3.01 2.45 1.93 2.08 1.99 1.35 1.19 1.60 1.81 1.40 0.84 0.54
0.29 0.24 0.28 0.38 0.75 1.03 1.02 1.29 1.63 1.74 2.01 2.64 2.78 2.27 2.07 1.83 1.52 1.51 1.66 1.68 1.76 1.68
0.47 0.34 0.35 0.24 0.36 0.63 1.08 1.14 1.01 1.13 1.20 1.15 1.24 1.39 1.72 1.91 1.73 1.65 1.61 1.48 1.53 1.71
0.59 0.73 0.50 0.41 0.39 0.50 0.61 0.87 0.91 0.85 0.85 0.86 0.75 0.79 0.94 0.98 1.19 1.51 1.68 1.60 1.56 1.75
1.12 1.31 0.82 0.72 0.60 0.64 0.70 0.64 0.57 0.61 0.68 0.72 0.70 0.72 0.75 0.91 0.90 0.87 0.95 1.07 1.08 1.11
0.92 1.17 1.47 1.28 1.17 0.88 0.80 0.77 0.79 0.56 0.53 0.48 0.47 0.53 0.58 0.69 0.71 0.78 0.87 0.97 0.93 0.87
1.09 0.39 0.55 1.07 0.87 0.68 0.56 0.71 1.04 0.95 0.83 0.59 0.38 0.38 0.47 0.50 0.47 0.52 0.62 0.65 0.67 0.70
0.38 0.29 0.10 0.11 0.27 0.26 0.19 0.33 0.83 0.77 0.64 0.53 0.37 0.29 0.20 0.20 0.27 0.36 0.36 0.36 0.40 0.45
0.08 0.08 0.07 0.04 0.04 0.04 0.02 0.04 0.12 0.16 0.29 0.38 0.28 0.34 0.23 0.26 0.24 0.23 0.22 0.21 0.23 0.29
0.02 0.02 0.03 0.02 0.01 0.03 0.02 0.00 0.01 0.05 0.12 0.25 0.36 0.49 0.57 0.57 0.46 0.45 0.50 0.53 0.50 0.41
0.00 0.00 0.00 0.00 0.00 0.00 0.00 0.00 0.00 0.00 0.02 0.03 0.05 0.14 0.38 0.62 0.84 0.96 0.85 0.75 0.69 0.73
0.00 0.00 0.00 0.00 0.00 0.00 0.00 0.00 0.01 0.01 0.01 0.02 0.05 0.11 0.12 0.22 0.27 0.33 0.37 0.35 0.32 0.33
0.00 0.00 0.01 0.01 0.01 0.01 0.01 0.01 0.01 0.01 0.01 0.03 0.09 0.20 0.26 0.38 0.49 0.52 0.48 0.37 0.29 0.31
0.00 0.01 0.01 0.00 0.01 0.01 0.01 0.01 0.01 0.01 0.01 0.01 0.02 0.04 0.09 0.20 0.32 0.37 0.41 0.41 0.40 0.41

GFSNIL_prec_precacc24_147.txt.gz
Total_Precipitation_Accumulation
0.21 0.26 0.54 0.71 1.06 1.92 2.52 2.26 2.51 2.82 2.98 2.44 1.93 2.09 1.97 1.32 1.20 1.62 1.83 1.51 1.16 0.79
0.27 0.23 0.28 0.37 0.73 1.02 1.00 1.22 1.54 1.72 2.01 2.65 2.78 2.28 2.07 1.82 1.51 1.51 1.68 1.71 1.83 1.79
0.47 0.34 0.35 0.25 0.35 0.63 1.06 1.09 0.95 1.12 1.22 1.17 1.29 1.42 1.79 1.94 1.75 1.66 1.60 1.48 1.55 1.82
0.59 0.73 0.51 0.43 0.41 0.53 0.61 0.81 0.86 0.80 0.83 0.94 0.82 0.91 1.01 0.99 1.21 1.52 1.69 1.59 1.59 1.85
1.12 1.31 0.83 0.77 0.66 0.69 0.77 0.70 0.56 0.57 0.67 0.76 0.82 0.88 0.91 1.00 0.98 0.91 1.00 1.11 1.14 1.19
0.92 1.16 1.47 1.30 1.19 0.93 0.90 0.95 1.04 0.84 0.75 0.72 0.71 0.72 0.73 0.73 0.79 0.87 1.03 1.08 1.13 1.12
1.09 0.39 0.55 1.07 0.86 0.69 0.62 0.89 1.34 1.48 1.49 1.24 0.96 0.96 0.81 0.67 0.77 0.70 0.84 0.80 0.73 0.82
0.38 0.29 0.10 0.10 0.27 0.25 0.18 0.37 0.95 1.03 1.10 0.92 0.69 0.62 0.31 0.29 0.46 0.64 0.46 0.40 0.42 0.45
0.08 0.08 0.07 0.04 0.04 0.04 0.01 0.03 0.10 0.10 0.18 0.38 0.32 0.34 0.20 0.23 0.27 0.25 0.20 0.19 0.22 0.29
0.02 0.02 0.03 0.02 0.01 0.03 0.02 0.00 0.00 0.02 0.06 0.09 0.15 0.20 0.18 0.18 0.16 0.21 0.31 0.46 0.48 0.40
0.00 0.00 0.00 0.00 0.00 0.00 0.00 0.00 0.00 0.00 0.00 0.00 0.00 0.01 0.04 0.15 0.25 0.28 0.30 0.52 0.65 0.72
0.00 0.00 0.00 0.00 0.00 0.00 0.00 0.00 0.01 0.00 0.00 0.00 0.00 0.00 0.00 0.02 0.04 0.09 0.16 0.23 0.27 0.30
0.00 0.00 0.01 0.00 0.01 0.00 0.01 0.01 0.01 0.01 0.01 0.01 0.00 0.00 0.00 0.01 0.05 0.11 0.13 0.16 0.19 0.23
0.00 0.01 0.01 0.00 0.01 0.01 0.01 0.01 0.01 0.01 0.01 0.01 0.01 0.00 0.00 0.00 0.01 0.05 0.10 0.20 0.26 0.29

GFSNIL_prec_precacc24_150.txt.gz
Total_Precipitation_Accumulation
0.20 0.25 0.53 0.70 1.04 1.90 2.50 2.24 2.48 2.79 2.87 2.30 1.85 2.09 1.98 1.33 1.20 1.62 1.85 1.53 1.19 0.85
0.26 0.21 0.26 0.36 0.72 1.00 0.99 1.20 1.51 1.68 1.94 2.50 2.68 2.25 2.06 1.82 1.50 1.52 1.69 1.75 1.91 1.89
0.47 0.34 0.35 0.24 0.35 0.62 1.06 1.07 0.93 1.10 1.15 1.11 1.22 1.39 1.78 1.98 1.78 1.70 1.58 1.47 1.59 1.94
0.59 0.73 0.51 0.44 0.41 0.54 0.63 0.81 0.84 0.77 0.79 0.94 0.82 0.94 1.09 1.17 1.31 1.60 1.69 1.56 1.58 1.87
1.12 1.31 0.83 0.78 0.66 0.70 0.80 0.74 0.60 0.55 0.62 0.71 0.81 0.97 1.05 1.12 1.10 0.98 1.00 1.09 1.14 1.20
0.91 1.16 1.47 1.30 1.19 0.93 0.91 0.97 1.04 0.85 0.76 0.74 0.85 0.92 1.17 0.97 0.81 0.87 1.03 1.08 1.15 1.19
1.09 0.39 0.55 1.07 0.86 0.69 0.62 0.90 1.34 1.50 1.55 1.33 1.03 1.09 1.06 0.98 1.01 0.90 1.08 1.00 0.85 1.01
0.38 0.29 0.10 0.10 0.27 0.25 0.17 0.36 0.95 1.04 1.14 1.01 0.78 0.77 0.54 0.44 0.81 0.88 0.77 0.96 0.75 0.70
0.08 0.08 0.07 0.04 0.04 0.03 0.01 0.02 0.09 0.08 0.17 0.42 0.37 0.36 0.23 0.25 0.39 0.45 0.34 0.30 0.30 0.32
0.02 0.02 0.03 0.02 0.01 0.03 0.02 0.00 0.00 0.00 0.00 0.02 0.06 0.06 0.07 0.05 0.07 0.13 0.20 0.23 0.22 0.20
0.00 0.00 0.00 0.00 0.00 0.00 0.00 0.00 0.00 0.00 0.00 0.00 0.00 0.00 0.01 0.04 0.04 0.05 0.08 0.08 0.08 0.09
0.00 0.00 0.00 0.00 0.00 0.00 0.00 0.00 0.00 0.00 0.00 0.00 0.00 0.00 0.00 0.00 0.00 0.00 0.03 0.04 0.06 0.09
0.00 0.00 0.00 0.00 0.00 0.00 0.00 0.00 0.00 0.01 0.01 0.00 0.00 0.00 0.00 0.00 0.00 0.00 0.00 0.01 0.03 0.06
0.00 0.00 0.00 0.00 0.00 0.00 0.00 0.00 0.00 0.01 0.01 0.00 0.00 0.00 0.00 0.00 0.00 0.01 0.01 0.01 0.02 0.04

GFSNIL_prec_precacc24_153.txt.gz
Total_Precipitation_Accumulation
0.14 0.18 0.42 0.53 0.73 1.78 2.49 2.24 2.47 2.77 2.86 2.28 1.83 2.07 1.97 1.32 1.20 1.63 1.86 1.54 1.19 0.84
0.20 0.18 0.23 0.33 0.67 0.97 0.98 1.20 1.51 1.67 1.93 2.46 2.61 2.18 2.03 1.80 1.49 1.51 1.72 1.79 1.93 1.90
0.42 0.31 0.32 0.22 0.32 0.60 1.05 1.07 0.94 1.11 1.14 1.08 1.17 1.35 1.75 1.95 1.75 1.68 1.60 1.47 1.59 1.93
0.56 0.70 0.49 0.43 0.41 0.54 0.63 0.81 0.85 0.78 0.80 0.93 0.80 0.91 1.07 1.14 1.29 1.57 1.73 1.59 1.60 1.86
1.11 1.31 0.83 0.78 0.66 0.70 0.81 0.74 0.60 0.55 0.61 0.72 0.82 0.97 1.04 1.12 1.23 1.09 1.07 1.21 1.13 1.20
0.89 1.14 1.45 1.29 1.20 0.93 0.91 0.97 1.04 0.85 0.75 0.74 0.86 0.94 1.19 0.99 0.85 0.96 1.24 1.24 1.19 1.18
1.08 0.36 0.52 1.04 0.84 0.68 0.62 0.89 1.33 1.48 1.53 1.30 1.01 1.08 1.06 1.02 1.09 0.97 1.19 1.16 0.86 1.03
0.37 0.29 0.10 0.09 0.25 0.24 0.16 0.35 0.94 1.01 1.10 0.95 0.74 0.72 0.51 0.43 0.81 0.89 0.79 1.00 0.80 0.68
0.08 0.08 0.07 0.04 0.03 0.03 0.01 0.02 0.08 0.07 0.15 0.40 0.34 0.27 0.16 0.20 0.39 0.48 0.38 0.38 0.36 0.37
0.02 0.02 0.03 0.02 0.01 0.03 0.02 0.00 0.00 0.00 0.00 0.02 0.05 0.05 0.06 0.03 0.06 0.12 0.19 0.23 0.22 0.21
0.00 0.00 0.00 0.00 0.00 0.00 0.00 0.00 0.00 0.00 0.00 0.00 0.00 0.00 0.01 0.01 0.00 0.00 0.00 0.01 0.02 0.03
0.00 0.00 0.00 0.00 0.00 0.00 0.00 0.00 0.00 0.00 0.00 0.00 0.00 0.00 0.00 0.00 0.00 0.00 0.00 0.00 0.00 0.01
0.00 0.00 0.00 0.00 0.00 0.00 0.00 0.00 0.00 0.00 0.00 0.00 0.00 0.00 0.00 0.00 0.00 0.00 0.00 0.00 0.00 0.00
0.00 0.00 0.00 0.00 0.00 0.00 0.00 0.00 0.00 0.00 0.01 0.00 0.00 0.00 0.00 0.00 0.00 0.00 0.00 0.00 0.01 0.00

GFSNIL_prec_precacc24_159.txt.gz
Total_Precipitation_Accumulation
0.03 0.03 0.04 0.05 0.05 0.08 0.13 0.12 0.13 0.36 1.33 1.41 1.39 1.72 1.66 1.17 1.12 1.59 1.77 1.47 1.19 0.86
0.04 0.04 0.07 0.07 0.06 0.08 0.12 0.17 0.20 0.23 0.83 1.31 1.32 1.31 1.50 1.40 1.11 1.17 1.58 1.76 1.90 1.89
0.12 0.08 0.16 0.14 0.16 0.12 0.15 0.16 0.17 0.40 0.62 0.59 0.58 0.67 1.41 1.74 1.55 1.42 1.38 1.33 1.43 1.77
0.27 0.31 0.31 0.31 0.32 0.32 0.31 0.34 0.33 0.30 0.44 0.61 0.56 0.71 0.95 1.09 1.26 1.48 1.61 1.43 1.45 1.71
0.92 1.15 0.64 0.66 0.56 0.63 0.69 0.62 0.45 0.38 0.37 0.54 0.72 0.89 0.98 1.06 1.18 1.06 1.02 1.17 1.08 1.17
0.78 1.12 1.43 1.17 1.05 0.87 0.80 0.89 0.98 0.75 0.62 0.63 0.80 0.90 1.15 0.97 0.86 0.97 1.24 1.26 1.23 1.19
0.86 0.33 0.52 1.04 0.77 0.61 0.59 0.82 1.24 1.43 1.49 1.26 0.97 1.07 1.05 1.02 1.07 0.96 1.20 1.24 0.93 1.13
0.26 0.25 0.08 0.09 0.25 0.24 0.16 0.32 0.89 0.96 1.07 0.93 0.72 0.70 0.49 0.41 0.79 0.87 0.76 0.97 0.76 0.61
0.03 0.05 0.07 0.04 0.03 0.03 0.00 0.02 0.07 0.05 0.10 0.33 0.28 0.20 0.08 0.06 0.22 0.31 0.25 0.28 0.25 0.21
0.01 0.01 0.01 0.02 0.01 0.02 0.02 0.00 0.00 0.00 0.00 0.01 0.04 0.04 0.05 0.02 0.03 0.05 0.09 0.10 0.09 0.07
0.00 0.00 0.00 0.00 0.00 0.00 0.00 0.00 0.00 0.00 0.00 0.00 0.00 0.00 0.01 0.01 0.00 0.00 0.01 0.01 0.02 0.02
0.00 0.00 0.00 0.00 0.00 0.00 0.00 0.00 0.00 0.00 0.00 0.00 0.00 0.00 0.00 0.00 0.00 0.00 0.00 0.00 0.00 0.00
0.00 0.00 0.00 0.00 0.00 0.00 0.00 0.00 0.00 0.00 0.00 0.00 0.00 0.00 0.00 0.00 0.00 0.00 0.00 0.00 0.00 0.00
0.00 0.00 0.00 0.00 0.00 0.00 0.00 0.00 0.00 0.01 0.01 0.00 0.00 0.00 0.00 0.00 0.00 0.00 0.00 0.00 0.00 0.00

GFSNIL_prec_precacc24_162.txt.gz
Total_Precipitation_Accumulation
0.02 0.02 0.03 0.03 0.04 0.05 0.07 0.08 0.05 0.03 0.03 0.06 0.13 0.39 1.21 1.03 1.04 1.56 1.75 1.46 1.19 0.85
0.03 0.03 0.04 0.03 0.03 0.05 0.08 0.10 0.11 0.09 0.09 0.11 0.12 0.19 0.64 0.90 0.80 0.91 1.31 1.55 1.79 1.84
0.08 0.05 0.07 0.05 0.05 0.08 0.12 0.12 0.09 0.15 0.15 0.14 0.20 0.21 0.37 0.52 0.55 0.45 0.63 0.81 0.98 1.56
0.10 0.08 0.08 0.11 0.16 0.22 0.24 0.28 0.22 0.16 0.16 0.25 0.20 0.34 0.44 0.53 0.50 0.41 0.33 0.41 0.75 1.44
0.24 0.27 0.27 0.45 0.45 0.58 0.61 0.46 0.35 0.32 0.30 0.32 0.39 0.50 0.60 0.58 0.72 0.67 0.60 0.68 0.74 1.09
0.29 0.64 0.85 1.01 1.00 0.86 0.79 0.76 0.89 0.74 0.61 0.53 0.63 0.68 0.88 0.67 0.58 0.63 1.03 1.11 1.16 1.18
0.19 0.16 0.42 0.89 0.74 0.58 0.58 0.81 1.21 1.42 1.47 1.23 0.89 0.90 0.84 0.82 0.96 0.89 1.14 1.20 0.92 1.13
0.08 0.12 0.04 0.07 0.25 0.23 0.15 0.32 0.89 0.94 1.04 0.91 0.69 0.67 0.45 0.36 0.76 0.86 0.76 0.98 0.76 0.60
0.00 0.03 0.05 0.03 0.03 0.03 0.00 0.02 0.07 0.05 0.10 0.33 0.28 0.19 0.08 0.06 0.22 0.31 0.25 0.28 0.24 0.21
0.00 0.00 0.01 0.01 0.01 0.02 0.02 0.00 0.00 0.00 0.00 0.01 0.04 0.04 0.05 0.02 0.03 0.05 0.09 0.10 0.09 0.07
0.00 0.00 0.00 0.00 0.00 0.00 0.00 0.00 0.00 0.00 0.00 0.00 0.00 0.00 0.01 0.01 0.00 0.00 0.01 0.01 0.02 0.02
0.00 0.00 0.00 0.00 0.00 0.00 0.00 0.00 0.00 0.00 0.00 0.00 0.00 0.00 0.00 0.00 0.00 0.00 0.00 0.00 0.00 0.00
0.00 0.00 0.00 0.00 0.00 0.00 0.00 0.00 0.00 0.00 0.00 0.00 0.00 0.00 0.00 0.00 0.00 0.00 0.00 0.00 0.00 0.00
0.00 0.00 0.00 0.00 0.00 0.00 0.00 0.00 0.00 0.01 0.01 0.00 0.00 0.00 0.00 0.00 0.00 0.00 0.00 0.00 0.00 0.00

GFSNIL_prec_precacc24_165.txt.gz
Total_Precipitation_Accumulation
0.02 0.02 0.02 0.02 0.03 0.04 0.04 0.04 0.02 0.03 0.02 0.02 0.03 0.03 0.04 0.18 0.29 0.74 1.35 1.21 0.93 0.68
0.02 0.02 0.03 0.03 0.02 0.04 0.03 0.04 0.05 0.07 0.06 0.06 0.05 0.05 0.05 0.09 0.20 0.29 0.61 1.09 1.55 1.62
0.05 0.03 0.03 0.03 0.03 0.03 0.04 0.04 0.04 0.13 0.14 0.12 0.11 0.08 0.13 0.12 0.10 0.13 0.18 0.35 0.57 1.17
0.06 0.05 0.05 0.04 0.05 0.09 0.13 0.14 0.12 0.11 0.14 0.23 0.17 0.24 0.24 0.33 0.25 0.16 0.16 0.21 0.37 0.67
0.10 0.09 0.10 0.16 0.18 0.23 0.30 0.33 0.27 0.26 0.26 0.29 0.32 0.38 0.41 0.37 0.53 0.44 0.36 0.43 0.31 0.38
0.03 0.09 0.19 0.35 0.38 0.59 0.57 0.67 0.76 0.68 0.54 0.48 0.59 0.59 0.76 0.54 0.35 0.40 0.61 0.59 0.63 0.67
0.01 0.01 0.05 0.15 0.20 0.37 0.48 0.70 1.02 1.33 1.42 1.21 0.88 0.87 0.74 0.66 0.77 0.68 0.89 0.94 0.62 0.87
0.00 0.01 0.00 0.01 0.05 0.06 0.12 0.28 0.74 0.93 1.04 0.91 0.69 0.67 0.44 0.32 0.66 0.73 0.65 0.89 0.69 0.55
0.00 0.00 0.01 0.01 0.02 0.01 0.00 0.02 0.07 0.05 0.10 0.33 0.28 0.19 0.08 0.06 0.22 0.31 0.25 0.27 0.24 0.21
0.00 0.00 0.00 0.00 0.00 0.01 0.01 0.00 0.00 0.00 0.00 0.01 0.04 0.04 0.05 0.02 0.03 0.05 0.09 0.10 0.09 0.07
0.00 0.00 0.00 0.00 0.00 0.00 0.00 0.00 0.00 0.00 0.00 0.00 0.00 0.00 0.01 0.01 0.00 0.00 0.01 0.01 0.02 0.02
0.00 0.00 0.00 0.00 0.00 0.00 0.00 0.00 0.00 0.00 0.00 0.00 0.00 0.00 0.00 0.00 0.00 0.00 0.00 0.00 0.00 0.00
0.00 0.00 0.00 0.00 0.00 0.00 0.00 0.00 0.00 0.00 0.00 0.00 0.00 0.00 0.00 0.00 0.00 0.00 0.00 0.00 0.00 0.00
0.00 0.00 0.00 0.00 0.00 0.00 0.00 0.00 0.00 0.01 0.01 0.00 0.00 0.00 0.00 0.00 0.00 0.00 0.00 0.00 0.00 0.00

GFSNIL_prec_precacc24_168.txt.gz
Total_Precipitation_Accumulation
0.01 0.01 0.01 0.02 0.02 0.03 0.03 0.03 0.02 0.01 0.01 0.01 0.02 0.03 0.04 0.05 0.06 0.07 0.10 0.20 0.42 0.40
0.01 0.01 0.02 0.02 0.02 0.03 0.02 0.03 0.02 0.02 0.02 0.02 0.02 0.05 0.05 0.05 0.05 0.05 0.11 0.16 0.23 0.32
0.01 0.00 0.01 0.01 0.02 0.02 0.02 0.02 0.02 0.03 0.05 0.04 0.06 0.07 0.12 0.10 0.09 0.08 0.05 0.07 0.14 0.30
0.00 0.00 0.01 0.02 0.02 0.04 0.04 0.03 0.03 0.03 0.06 0.15 0.14 0.22 0.22 0.24 0.17 0.14 0.13 0.08 0.13 0.22
0.00 0.01 0.02 0.07 0.07 0.08 0.12 0.12 0.10 0.07 0.09 0.15 0.23 0.34 0.39 0.29 0.40 0.32 0.24 0.31 0.22 0.25
0.00 0.00 0.00 0.03 0.04 0.07 0.13 0.23 0.28 0.33 0.30 0.35 0.50 0.53 0.74 0.50 0.32 0.36 0.56 0.52 0.57 0.58
0.00 0.00 0.00 0.00 0.00 0.02 0.09 0.23 0.36 0.60 0.78 0.80 0.74 0.80 0.71 0.64 0.72 0.60 0.79 0.83 0.51 0.67
0.00 0.00 0.00 0.00 0.00 0.00 0.00 0.06 0.16 0.32 0.57 0.57 0.53 0.61 0.43 0.31 0.63 0.65 0.57 0.85 0.64 0.48
0.00 0.00 0.00 0.00 0.00 0.00 0.00 0.00 0.02 0.02 0.07 0.27 0.26 0.19 0.08 0.06 0.22 0.31 0.25 0.27 0.24 0.21
0.00 0.00 0.00 0.00 0.00 0.00 0.00 0.00 0.00 0.00 0.00 0.01 0.04 0.04 0.05 0.02 0.03 0.05 0.09 0.10 0.09 0.07
0.00 0.00 0.00 0.00 0.00 0.00 0.00 0.00 0.00 0.00 0.00 0.00 0.00 0.00 0.01 0.01 0.00 0.00 0.01 0.01 0.02 0.02
0.00 0.00 0.00 0.00 0.00 0.00 0.00 0.00 0.00 0.00 0.00 0.00 0.00 0.00 0.00 0.00 0.00 0.00 0.00 0.00 0.00 0.00
0.00 0.00 0.00 0.00 0.00 0.00 0.00 0.00 0.00 0.00 0.00 0.00 0.00 0.00 0.00 0.00 0.00 0.00 0.00 0.00 0.00 0.00
0.00 0.00 0.00 0.00 0.00 0.00 0.00 0.00 0.00 0.01 0.00 0.00 0.00 0.00 0.00 0.00 0.00 0.00 0.00 0.00 0.00 0.00

GFSNIL_prec_precacc24_171.txt.gz
Total_Precipitation_Accumulation
0.00 0.00 0.00 0.01 0.01 0.02 0.03 0.03 0.02 0.01 0.01 0.01 0.01 0.01 0.02 0.04 0.05 0.05 0.08 0.09 0.10 0.15
0.00 0.00 0.00 0.01 0.01 0.02 0.02 0.03 0.02 0.02 0.01 0.01 0.01 0.01 0.02 0.03 0.03 0.04 0.09 0.13 0.16 0.20
0.00 0.00 0.00 0.00 0.01 0.01 0.01 0.01 0.02 0.02 0.02 0.02 0.01 0.01 0.02 0.06 0.05 0.06 0.05 0.06 0.11 0.18
0.00 0.00 0.00 0.00 0.01 0.01 0.02 0.02 0.03 0.03 0.03 0.05 0.04 0.05 0.11 0.21 0.14 0.11 0.11 0.06 0.10 0.12
0.00 0.00 0.00 0.00 0.00 0.01 0.03 0.05 0.05 0.03 0.03 0.06 0.08 0.15 0.19 0.18 0.31 0.26 0.18 0.24 0.14 0.17
0.00 0.00 0.00 0.00 0.00 0.00 0.01 0.02 0.01 0.02 0.03 0.08 0.24 0.31 0.56 0.39 0.21 0.25 0.39 0.40 0.36 0.32
0.00 0.00 0.00 0.00 0.00 0.00 0.01 0.02 0.02 0.04 0.09 0.11 0.11 0.19 0.30 0.42 0.39 0.38 0.54 0.67 0.44 0.55
0.00 0.00 0.00 0.00 0.00 0.00 0.00 0.00 0.02 0.04 0.08 0.11 0.12 0.18 0.25 0.17 0.41 0.33 0.44 0.79 0.62 0.47
0.00 0.00 0.00 0.00 0.00 0.00 0.00 0.00 0.00 0.00 0.02 0.07 0.08 0.09 0.04 0.04 0.17 0.26 0.23 0.27 0.24 0.21
0.00 0.00 0.00 0.00 0.00 0.00 0.00 0.00 0.00 0.00 0.00 0.00 0.03 0.03 0.03 0.01 0.03 0.05 0.09 0.10 0.09 0.07
0.00 0.00 0.00 0.00 0.00 0.00 0.00 0.00 0.00 0.00 0.00 0.00 0.00 0.00 0.01 0.01 0.00 0.00 0.01 0.01 0.02 0.02
0.00 0.00 0.00 0.00 0.00 0.00 0.00 0.00 0.00 0.00 0.00 0.00 0.00 0.00 0.00 0.00 0.00 0.00 0.00 0.00 0.00 0.00
0.00 0.00 0.00 0.00 0.00 0.00 0.00 0.00 0.00 0.00 0.00 0.00 0.00 0.00 0.00 0.00 0.00 0.00 0.00 0.00 0.00 0.00
0.00 0.00 0.00 0.00 0.00 0.00 0.00 0.00 0.00 0.00 0.00 0.00 0.00 0.00 0.00 0.00 0.00 0.00 0.00 0.00 0.00 0.00

GFSNIL_prec_precacc24_174.txt.gz
Total_Precipitation_Accumulation
0.00 0.00 0.00 0.00 0.00 0.01 0.02 0.02 0.01 0.01 0.01 0.01 0.01 0.01 0.01 0.02 0.02 0.03 0.06 0.07 0.07 0.09
0.00 0.00 0.00 0.00 0.00 0.01 0.01 0.02 0.02 0.01 0.01 0.01 0.00 0.01 0.01 0.01 0.01 0.02 0.06 0.09 0.08 0.10
0.00 0.00 0.00 0.00 0.00 0.00 0.00 0.01 0.01 0.01 0.02 0.02 0.01 0.01 0.01 0.01 0.00 0.02 0.04 0.04 0.05 0.06
0.00 0.00 0.00 0.00 0.00 0.00 0.00 0.00 0.01 0.02 0.02 0.02 0.02 0.01 0.02 0.02 0.03 0.03 0.08 0.05 0.07 0.07
0.00 0.00 0.00 0.00 0.00 0.00 0.00 0.00 0.00 0.01 0.02 0.04 0.04 0.03 0.04 0.05 0.18 0.18 0.13 0.21 0.10 0.13
0.00 0.00 0.00 0.00 0.00 0.00 0.00 0.00 0.00 0.00 0.00 0.02 0.04 0.05 0.07 0.10 0.13 0.20 0.33 0.34 0.29 0.21
0.00 0.00 0.00 0.00 0.00 0.00 0.00 0.00 0.00 0.00 0.00 0.00 0.00 0.01 0.02 0.07 0.11 0.14 0.25 0.41 0.28 0.33
0.00 0.00 0.00 0.00 0.00 0.00 0.00 0.00 0.00 0.00 0.00 0.01 0.01 0.01 0.01 0.02 0.05 0.07 0.10 0.19 0.23 0.18
0.00 0.00 0.00 0.00 0.00 0.00 0.00 0.00 0.00 0.00 0.00 0.00 0.00 0.01 0.00 0.01 0.05 0.06 0.08 0.14 0.14 0.12
0.00 0.00 0.00 0.00 0.00 0.00 0.00 0.00 0.00 0.00 0.00 0.00 0.00 0.01 0.01 0.00 0.01 0.01 0.03 0.06 0.07 0.07
0.00 0.00 0.00 0.00 0.00 0.00 0.00 0.00 0.00 0.00 0.00 0.00 0.00 0.00 0.00 0.01 0.00 0.00 0.00 0.00 0.02 0.02
0.00 0.00 0.00 0.00 0.00 0.00 0.00 0.00 0.00 0.00 0.00 0.00 0.00 0.00 0.00 0.00 0.00 0.00 0.00 0.00 0.00 0.00
0.00 0.00 0.00 0.00 0.00 0.00 0.00 0.00 0.00 0.00 0.00 0.00 0.00 0.00 0.00 0.00 0.00 0.00 0.00 0.00 0.00 0.00
0.00 0.00 0.00 0.00 0.00 0.00 0.00 0.00 0.00 0.00 0.00 0.00 0.00 0.00 0.00 0.00 0.00 0.00 0.00 0.00 0.00 0.00

GFSNIL_prec_precacc24_177.txt.gz
Total_Precipitation_Accumulation
0.00 0.00 0.00 0.00 0.00 0.00 0.01 0.01 0.00 0.00 0.01 0.01 0.00 0.01 0.01 0.01 0.02 0.02 0.04 0.05 0.05 0.07
0.00 0.00 0.00 0.00 0.00 0.00 0.00 0.00 0.00 0.00 0.00 0.00 0.00 0.01 0.01 0.01 0.01 0.01 0.03 0.04 0.04 0.07
0.00 0.00 0.00 0.00 0.00 0.00 0.00 0.00 0.00 0.00 0.00 0.01 0.00 0.00 0.00 0.01 0.00 0.01 0.02 0.03 0.04 0.05
0.00 0.00 0.00 0.00 0.00 0.00 0.00 0.00 0.00 0.00 0.00 0.01 0.01 0.01 0.01 0.01 0.01 0.02 0.02 0.02 0.03 0.05
0.00 0.00 0.00 0.00 0.00 0.00 0.00 0.00 0.00 0.00 0.00 0.00 0.01 0.01 0.01 0.01 0.02 0.03 0.04 0.06 0.06 0.08
0.00 0.00 0.00 0.00 0.00 0.00 0.00 0.00 0.00 0.00 0.00 0.00 0.00 0.00 0.01 0.03 0.04 0.06 0.09 0.14 0.20 0.17
0.00 0.00 0.00 0.00 0.00 0.00 0.00 0.00 0.00 0.00 0.00 0.00 0.00 0.00 0.00 0.00 0.00 0.01 0.06 0.16 0.20 0.24
0.00 0.00 0.00 0.00 0.00 0.00 0.00 0.00 0.00 0.00 0.00 0.00 0.00 0.00 0.00 0.00 0.00 0.01 0.01 0.05 0.07 0.08
0.00 0.00 0.00 0.00 0.00 0.00 0.00 0.00 0.00 0.00 0.00 0.00 0.00 0.00 0.00 0.00 0.00 0.00 0.01 0.02 0.03 0.02
0.00 0.00 0.00 0.00 0.00 0.00 0.00 0.00 0.00 0.00 0.00 0.00 0.00 0.00 0.00 0.00 0.00 0.00 0.00 0.01 0.02 0.02
0.00 0.00 0.00 0.00 0.00 0.00 0.00 0.00 0.00 0.00 0.00 0.00 0.00 0.00 0.00 0.00 0.00 0.00 0.00 0.00 0.00 0.01
0.00 0.00 0.00 0.00 0.00 0.00 0.00 0.00 0.00 0.00 0.00 0.00 0.00 0.00 0.00 0.00 0.00 0.00 0.00 0.00 0.00 0.00
0.00 0.00 0.00 0.00 0.00 0.00 0.00 0.00 0.00 0.00 0.00 0.00 0.00 0.00 0.00 0.00 0.00 0.00 0.00 0.00 0.00 0.00
0.00 0.00 0.00 0.00 0.00 0.00 0.00 0.00 0.00 0.00 0.00 0.00 0.00 0.00 0.00 0.00 0.00 0.00 0.00 0.00 0.01 0.00

GFSNIL_prec_precacc24_180.txt.gz
Total_Precipitation_Accumulation
0.00 0.00 0.00 0.00 0.00 0.00 0.00 0.00 0.00 0.00 0.00 0.00 0.00 0.00 0.00 0.01 0.01 0.02 0.03 0.04 0.04 0.05
0.00 0.00 0.00 0.00 0.00 0.00 0.00 0.00 0.00 0.00 0.00 0.00 0.00 0.00 0.00 0.01 0.01 0.01 0.02 0.03 0.03 0.05
0.00 0.00 0.00 0.00 0.00 0.00 0.00 0.00 0.00 0.00 0.00 0.00 0.00 0.00 0.00 0.00 0.00 0.00 0.01 0.02 0.03 0.04
0.00 0.00 0.00 0.00 0.00 0.00 0.00 0.00 0.00 0.00 0.00 0.00 0.00 0.00 0.00 0.00 0.00 0.00 0.01 0.01 0.02 0.03
0.00 0.00 0.00 0.00 0.00 0.00 0.00 0.00 0.00 0.00 0.00 0.00 0.00 0.00 0.00 0.00 0.00 0.00 0.01 0.02 0.02 0.04
0.00 0.00 0.00 0.00 0.00 0.00 0.00 0.00 0.00 0.00 0.00 0.00 0.00 0.00 0.00 0.00 0.00 0.00 0.01 0.04 0.07 0.09
0.00 0.00 0.00 0.00 0.00 0.00 0.00 0.00 0.00 0.00 0.00 0.00 0.00 0.00 0.00 0.00 0.00 0.00 0.00 0.01 0.05 0.06
0.00 0.00 0.00 0.00 0.00 0.00 0.00 0.00 0.00 0.00 0.00 0.00 0.00 0.00 0.00 0.00 0.00 0.00 0.00 0.00 0.01 0.01
0.00 0.00 0.00 0.00 0.00 0.00 0.00 0.00 0.00 0.00 0.00 0.00 0.00 0.00 0.00 0.00 0.00 0.00 0.00 0.00 0.00 0.00
0.00 0.00 0.00 0.00 0.00 0.00 0.00 0.00 0.00 0.00 0.00 0.00 0.00 0.00 0.00 0.00 0.00 0.00 0.00 0.00 0.00 0.00
0.01 0.00 0.00 0.00 0.00 0.00 0.00 0.00 0.00 0.00 0.00 0.00 0.00 0.00 0.00 0.00 0.00 0.00 0.00 0.00 0.00 0.00
0.00 0.00 0.00 0.00 0.00 0.00 0.00 0.00 0.00 0.00 0.00 0.00 0.00 0.00 0.00 0.00 0.00 0.00 0.00 0.00 0.00 0.00
0.00 0.00 0.00 0.00 0.00 0.00 0.00 0.00 0.00 0.00 0.00 0.00 0.00 0.00 0.00 0.00 0.00 0.00 0.00 0.00 0.00 0.00
0.00 0.00 0.00 0.00 0.00 0.00 0.00 0.00 0.00 0.00 0.00 0.00 0.00 0.00 0.00 0.00 0.00 0.00 0.00 0.00 0.01 0.00

GFSNIL_prec_precacc24_183.txt.gz
Total_Precipitation_Accumulation
0.00 0.00 0.00 0.00 0.00 0.00 0.00 0.00 0.00 0.00 0.00 0.00 0.00 0.00 0.00 0.00 0.00 0.01 0.02 0.02 0.02 0.03
0.00 0.00 0.00 0.00 0.00 0.00 0.00 0.00 0.00 0.00 0.00 0.00 0.00 0.00 0.00 0.00 0.00 0.00 0.01 0.02 0.02 0.03
0.00 0.00 0.00 0.00 0.00 0.00 0.00 0.00 0.00 0.00 0.00 0.00 0.00 0.00 0.00 0.00 0.00 0.00 0.00 0.01 0.02 0.03
0.00 0.00 0.00 0.00 0.00 0.00 0.00 0.00 0.00 0.00 0.00 0.00 0.00 0.00 0.00 0.00 0.00 0.00 0.00 0.01 0.01 0.01
0.00 0.00 0.00 0.00 0.00 0.00 0.00 0.00 0.00 0.00 0.00 0.00 0.00 0.00 0.00 0.00 0.00 0.00 0.00 0.01 0.01 0.02
0.00 0.00 0.00 0.00 0.00 0.00 0.00 0.00 0.00 0.00 0.00 0.00 0.00 0.00 0.00 0.00 0.00 0.00 0.00 0.01 0.01 0.02
0.00 0.00 0.00 0.00 0.00 0.00 0.00 0.00 0.00 0.00 0.00 0.00 0.00 0.00 0.00 0.00 0.00 0.00 0.00 0.00 0.00 0.00
0.00 0.00 0.00 0.00 0.00 0.00 0.00 0.00 0.00 0.00 0.00 0.00 0.00 0.00 0.00 0.00 0.00 0.00 0.00 0.00 0.00 0.00
0.00 0.00 0.00 0.00 0.00 0.00 0.00 0.00 0.00 0.00 0.00 0.00 0.00 0.00 0.00 0.00 0.00 0.00 0.00 0.00 0.00 0.00
0.00 0.00 0.00 0.00 0.00 0.00 0.00 0.00 0.00 0.00 0.00 0.00 0.00 0.00 0.00 0.00 0.00 0.00 0.00 0.00 0.00 0.00
0.01 0.00 0.00 0.00 0.00 0.00 0.00 0.00 0.00 0.00 0.00 0.00 0.00 0.00 0.00 0.00 0.00 0.00 0.00 0.00 0.00 0.00
0.00 0.00 0.00 0.00 0.00 0.00 0.00 0.00 0.00 0.00 0.00 0.00 0.00 0.00 0.00 0.00 0.00 0.00 0.00 0.00 0.00 0.00
0.01 0.01 0.01 0.01 0.00 0.00 0.00 0.00 0.00 0.00 0.00 0.00 0.00 0.00 0.00 0.00 0.00 0.00 0.00 0.00 0.00 0.00
0.00 0.00 0.00 0.00 0.00 0.00 0.00 0.00 0.00 0.00 0.00 0.00 0.00 0.00 0.00 0.00 0.00 0.00 0.00 0.01 0.01 0.00